Theta_e
307 306 307 307 306 306 306 306 306 306 306 306 307 307 307 306 306 306 306 307 307 307 308 308 308 308 308 309 310 311 311 312 311 311 313 315 315 314 316 315 314 314 313 312 312 313 313 313 313 312 317 318 315 315 314 316 321 330 333 324 316 317 317 318 323 321 317 318 318 317 314 314 317 315 311 309 312 315 314 315 314 311 310 309 307 306 307 307
306 307 307 308 307 307 306 306 306 307 307 307 307 308 308 307 307 307 307 307 307 308 308 308 308 309 309 310 312 313 312 311 311 313 316 317 316 315 316 315 313 313 312 312 312 312 313 314 312 314 321 319 313 317 319 315 320 334 329 316 321 326 318 318 324 321 317 315 316 317 313 313 314 313 311 312 316 315 314 315 315 315 315 310 306 307 307 306
306 306 307 308 308 307 307 306 306 307 307 308 308 308 309 308 307 308 308 308 308 308 308 308 309 310 311 312 314 314 312 311 312 314 316 316 315 315 315 314 312 313 312 312 313 312 314 315 312 316 324 319 314 320 324 318 318 325 322 319 328 330 321 318 322 320 317 314 317 318 312 313 314 312 311 313 316 314 314 315 315 316 315 310 304 304 305 305
307 308 307 307 307 308 308 307 307 307 307 308 308 308 309 309 308 308 308 308 308 309 309 310 310 312 313 314 315 314 311 314 314 313 315 316 315 315 314 313 312 312 313 312 313 314 314 313 313 318 322 319 320 321 320 317 317 317 318 324 325 320 319 319 322 321 318 314 315 317 313 314 314 311 312 313 314 314 314 313 314 313 311 310 306 303 304 304
311 310 309 308 308 308 308 308 309 308 307 308 309 309 309 310 310 309 309 309 309 311 311 312 313 314 314 315 316 315 314 317 315 312 314 315 314 314 313 313 313 313 313 312 313 313 313 312 314 322 322 318 322 319 316 316 316 316 318 323 323 318 317 319 322 320 317 314 314 317 315 314 311 310 313 313 313 313 310 308 310 308 307 309 307 303 303 302
312 312 312 311 309 308 308 308 308 309 308 309 310 310 310 310 311 312 312 312 312 313 313 313 314 315 315 316 316 315 314 315 312 312 314 313 313 313 313 313 313 313 313 314 313 312 314 314 316 325 323 317 318 314 314 315 314 317 318 319 321 319 317 319 320 317 315 314 316 317 313 311 311 312 313 311 313 310 303 303 306 304 303 304 303 302 302 302
313 313 313 312 311 310 308 308 308 309 309 310 310 310 310 311 312 313 314 314 314 315 315 315 315 315 316 316 316 317 317 315 313 314 315 314 313 313 313 314 314 313 313 313 313 315 317 317 318 322 322 316 315 313 313 313 314 318 320 320 319 317 318 320 318 317 315 314 315 313 309 310 313 312 310 310 310 304 300 302 303 302 302 302 301 301 301 301
313 313 313 312 312 312 310 309 308 309 309 310 311 311 311 312 313 315 315 316 315 316 316 316 316 315 316 316 317 321 321 318 315 315 316 316 315 315 315 315 314 313 313 313 313 315 316 315 316 316 317 314 313 315 312 311 317 319 320 321 318 316 321 320 316 317 315 313 311 309 311 312 311 311 309 310 307 301 301 303 302 302 302 301 300 301 300 300
313 314 314 313 313 312 312 311 309 309 310 310 311 312 312 312 313 315 316 316 315 316 316 315 316 315 315 314 316 320 319 317 316 316 317 317 316 317 316 315 314 313 312 313 313 313 313 316 317 314 315 315 311 314 313 312 317 319 319 320 318 315 317 315 315 317 315 314 310 309 314 312 308 309 310 310 304 301 304 303 302 302 302 301 300 300 300 300
313 314 315 314 313 313 313 313 313 311 310 311 311 311 312 312 313 314 316 317 315 316 315 315 315 315 315 314 316 319 317 319 319 319 319 318 318 318 316 315 314 313 312 312 312 312 313 315 313 310 314 314 311 311 313 312 314 317 318 317 316 314 313 314 314 315 313 312 311 310 314 311 307 310 312 309 301 302 309 305 301 301 301 300 299 299 300 299
314 314 315 314 314 314 313 314 313 313 311 311 311 311 312 313 313 315 316 317 316 315 316 316 315 315 314 314 319 320 316 319 321 320 320 318 318 318 316 315 313 313 312 311 311 311 312 312 308 308 313 313 311 312 312 311 311 313 314 314 317 315 314 315 313 311 310 311 310 310 313 311 308 311 311 306 301 305 313 308 301 301 300 299 299 299 299 299
315 315 315 315 315 314 313 314 313 313 312 311 312 313 313 314 315 316 317 317 316 316 317 317 316 315 313 314 319 318 315 317 319 319 319 317 317 316 315 314 314 313 312 311 312 312 312 311 310 313 314 312 313 314 312 310 311 312 312 314 318 318 317 314 310 310 310 311 311 311 314 316 313 310 307 304 303 307 314 309 303 301 299 299 299 298 299 299
314 315 315 315 315 315 314 314 313 313 313 313 314 314 315 316 317 318 318 317 317 317 317 317 316 314 313 317 318 314 314 316 318 319 318 317 316 315 315 314 313 312 312 313 312 312 312 311 312 314 313 315 317 312 311 312 311 313 312 314 316 318 320 313 308 311 311 311 311 311 317 322 315 306 305 304 304 311 316 308 302 301 300 299 299 298 299 298
314 315 316 316 316 316 315 314 314 313 313 313 314 315 316 317 318 319 318 317 317 317 316 316 316 313 313 319 316 311 313 314 315 316 316 316 315 314 314 314 313 313 313 313 313 313 313 311 311 312 311 314 314 308 314 319 317 315 312 318 319 316 324 319 311 313 312 310 309 311 318 322 314 305 305 304 304 314 314 305 302 301 299 299 298 298 298 298
315 316 316 317 318 317 316 315 314 313 313 314 315 316 317 318 319 319 317 317 317 316 315 314 314 313 316 319 314 312 314 313 314 315 315 315 314 314 314 314 313 313 313 312 313 313 311 312 313 315 312 310 312 313 322 324 325 322 314 324 325 316 324 324 312 313 313 309 309 313 318 320 312 306 305 302 305 315 311 303 301 300 299 299 298 297 297 297
315 316 316 318 318 316 315 314 314 313 313 315 316 317 318 319 319 317 316 315 315 315 313 314 313 313 319 318 313 313 314 314 316 316 316 315 314 315 313 313 312 312 312 311 312 311 311 313 312 313 313 311 316 325 328 324 327 324 316 324 328 318 320 319 313 313 312 311 311 313 317 319 312 305 304 302 304 311 310 303 301 300 299 298 297 297 296 296
316 316 316 317 317 316 316 314 314 313 313 315 316 317 318 318 317 316 315 314 316 315 314 314 313 313 316 314 313 315 313 313 315 316 317 315 314 315 312 311 310 310 311 310 311 311 311 313 311 312 314 314 318 325 327 324 326 325 316 318 323 318 316 317 316 314 311 312 313 313 314 316 313 308 305 303 302 309 309 303 301 299 298 297 297 296 296 296
317 317 317 317 317 316 315 314 313 313 314 315 315 317 318 317 316 315 315 315 315 313 313 313 312 315 317 314 314 314 312 312 314 317 317 315 314 314 313 311 308 309 313 313 312 312 313 314 316 318 317 313 315 320 323 323 327 330 322 319 321 317 314 317 317 313 312 314 315 315 314 315 314 312 308 302 301 308 306 300 300 299 298 298 296 296 296 295
318 318 318 317 318 316 314 313 313 313 315 315 316 317 316 315 315 316 315 316 318 315 316 316 314 319 319 315 313 312 312 312 314 315 315 315 313 313 313 310 311 314 315 316 313 313 316 317 318 320 317 314 315 317 319 320 323 328 327 326 325 320 317 318 317 313 312 313 316 315 314 315 313 313 310 303 301 304 302 300 300 299 298 297 296 296 296 295
320 320 319 319 319 316 314 313 313 314 316 316 317 315 316 319 317 317 316 316 320 318 319 320 317 319 318 314 313 312 312 312 312 314 313 313 311 312 311 308 313 315 315 320 316 312 315 318 319 319 318 316 314 313 316 319 319 319 321 322 321 319 318 317 315 314 311 312 317 315 313 314 313 314 309 303 303 304 302 302 301 299 298 297 296 296 295 295
319 320 320 319 318 316 314 313 313 315 316 316 317 316 321 324 319 319 321 321 318 313 317 319 314 316 314 311 312 312 314 314 311 312 312 312 310 313 313 311 315 315 315 321 316 310 312 318 320 317 316 316 314 313 312 315 316 314 315 316 317 317 316 314 313 314 312 312 316 314 312 315 315 315 307 303 307 306 302 303 301 299 298 296 296 296 295 295
318 319 319 319 317 315 314 313 313 316 317 316 317 316 318 319 316 315 319 323 321 313 315 315 312 315 314 311 312 312 316 318 315 312 311 310 310 313 315 314 317 317 315 317 315 313 314 317 317 313 314 315 314 312 311 312 312 312 313 313 315 315 315 316 314 313 312 312 317 316 313 315 315 310 304 302 304 301 299 300 300 298 297 296 296 295 295 295
319 319 319 318 316 315 313 312 314 316 317 317 317 317 316 317 316 315 317 325 327 319 317 317 317 319 316 313 313 312 316 320 318 315 311 310 311 313 314 314 316 317 315 315 317 318 319 321 317 313 313 314 314 314 313 312 312 312 313 313 315 315 316 321 317 313 312 310 314 316 313 314 313 306 303 301 300 299 298 298 297 297 297 296 295 294 294 294
320 319 318 317 315 315 314 313 315 316 317 317 317 318 318 317 316 316 319 324 327 324 319 317 317 321 321 316 313 314 316 318 319 316 311 311 312 312 313 314 316 317 314 314 317 318 320 319 314 312 313 313 314 315 314 314 315 315 314 313 315 315 316 319 316 314 315 312 311 312 315 320 316 311 307 302 299 299 298 298 297 296 296 295 294 293 293 293
318 318 317 315 315 315 314 314 315 316 317 316 317 318 318 318 315 315 320 327 329 325 319 315 316 321 320 314 313 315 316 318 319 316 311 310 313 312 313 314 315 317 315 314 314 316 320 316 312 315 315 314 315 316 316 317 317 318 318 315 314 315 316 317 314 314 319 320 313 310 320 329 323 317 312 303 301 301 300 299 298 297 296 296 295 294 293 293
318 317 316 315 315 315 314 315 316 316 317 316 317 319 319 318 315 314 322 332 332 326 321 319 320 321 318 315 313 315 320 320 314 311 310 310 311 312 314 313 314 317 316 315 315 318 318 313 312 318 318 316 315 317 317 316 316 319 320 317 313 312 314 315 315 316 321 323 314 309 318 327 327 323 314 304 303 302 300 300 299 297 297 296 295 295 294 293
318 317 317 316 314 314 315 316 316 316 318 318 318 320 320 317 315 313 322 334 331 325 323 320 317 318 316 312 312 319 326 320 311 308 309 310 310 311 315 315 314 315 314 317 320 319 317 313 312 316 318 317 316 317 317 314 318 322 318 316 316 313 315 317 317 318 321 320 316 315 316 319 323 321 311 304 306 304 301 301 299 298 297 296 295 295 294 294
318 317 317 316 315 315 315 316 316 316 318 320 319 320 319 316 315 317 327 335 329 321 322 318 313 313 311 308 312 319 317 314 317 313 306 308 310 311 317 319 317 317 314 318 324 318 315 318 318 315 316 317 316 319 317 314 319 321 313 313 317 316 317 319 317 318 317 314 320 323 316 316 324 321 309 304 307 307 304 303 300 298 297 296 295 295 294 294
318 318 317 315 315 315 315 317 317 317 319 320 320 320 317 315 317 321 328 332 327 319 318 315 311 311 311 310 313 314 309 310 318 313 306 308 309 310 316 318 317 317 313 316 323 318 313 314 317 317 318 319 318 317 313 314 318 314 309 311 314 314 316 318 318 319 315 315 324 325 317 318 326 327 316 308 311 313 308 303 300 299 298 296 296 295 294 294
318 318 317 315 314 314 315 317 317 319 320 319 319 317 315 318 323 328 329 330 327 320 314 313 312 313 315 316 316 313 310 311 312 310 310 311 310 310 311 311 314 317 314 315 319 317 310 307 311 316 318 318 317 311 307 312 314 309 312 317 316 317 319 319 319 318 316 321 323 319 317 317 322 329 323 315 315 314 309 304 300 299 298 297 296 295 294 293
318 318 317 315 315 314 315 317 317 319 320 318 317 316 318 323 327 332 331 327 325 320 315 314 312 313 317 320 320 314 311 311 310 312 313 311 312 313 312 312 316 320 320 317 317 314 310 309 312 314 313 313 314 310 306 308 308 311 320 322 319 320 319 319 321 319 321 327 321 313 313 315 320 328 323 316 313 308 307 306 301 299 298 296 296 295 294 294
318 318 318 316 315 315 316 317 316 319 319 316 316 318 323 327 327 332 331 325 326 323 319 318 313 314 318 318 317 313 313 314 311 313 316 313 313 314 315 318 320 324 325 320 318 316 314 315 314 311 309 311 318 316 310 308 308 313 321 321 322 325 324 325 326 321 322 323 314 310 314 315 319 322 317 316 313 305 304 304 300 299 298 296 296 295 294 294
318 318 318 316 316 315 317 317 317 319 317 315 318 322 326 329 329 331 329 327 328 320 317 318 315 316 319 317 316 312 313 315 312 313 314 313 315 314 314 316 317 326 328 319 318 319 319 318 313 311 311 312 317 318 316 315 312 314 319 321 324 327 330 334 328 320 320 318 310 309 314 316 319 318 314 313 308 302 300 301 300 298 297 296 295 294 294 294
318 318 318 317 316 316 316 317 318 319 316 315 321 324 326 330 331 330 329 328 326 320 317 317 314 316 318 319 318 314 316 316 311 313 313 312 316 316 316 314 312 322 325 318 318 320 323 323 316 314 315 313 313 315 319 319 313 313 317 319 323 327 332 333 329 327 325 319 313 310 314 322 324 316 308 304 300 298 299 299 299 298 297 296 295 294 295 294
318 318 318 318 317 317 316 316 318 319 316 317 323 326 327 329 329 330 331 327 324 321 317 315 315 317 317 317 316 314 317 317 311 313 314 314 317 318 319 315 312 319 323 320 320 317 320 324 318 313 311 311 312 313 315 316 314 313 313 316 320 324 326 321 317 319 319 319 317 314 317 323 318 308 300 299 299 298 298 298 298 298 297 296 295 294 294 293
319 318 318 318 318 318 317 317 318 318 316 320 326 327 327 328 328 330 329 326 324 319 314 315 318 320 318 316 315 313 313 315 314 315 314 314 317 316 318 318 313 314 318 322 323 318 320 322 315 311 310 309 310 312 312 315 317 313 312 319 319 316 322 321 312 308 311 318 320 317 319 318 313 309 302 299 301 300 298 298 297 297 297 296 295 294 293 293
318 318 318 318 318 318 318 317 318 317 317 321 327 327 325 326 328 328 325 323 321 316 316 319 319 320 319 316 317 315 314 316 314 315 316 315 316 316 317 319 315 312 315 320 322 322 325 324 314 311 314 309 305 310 312 311 314 316 317 320 314 311 319 323 318 316 316 321 321 317 319 318 316 318 308 302 306 305 299 298 297 296 296 296 295 294 293 293
317 316 317 318 318 318 318 318 317 317 318 322 326 326 325 325 324 324 324 320 318 316 320 324 321 320 319 317 318 315 315 318 314 314 317 315 316 317 316 318 316 311 313 315 317 319 322 324 317 310 312 310 306 312 314 309 309 314 317 315 314 318 321 318 320 324 322 323 323 316 313 314 317 319 316 311 312 309 301 297 297 297 296 296 295 294 293 293
316 316 318 318 317 318 318 318 317 318 321 324 325 324 325 324 321 322 323 322 322 322 323 326 325 324 320 318 320 316 315 319 314 314 318 316 317 316 314 318 317 312 312 313 316 320 319 322 322 312 310 312 310 313 318 313 309 310 311 310 312 318 321 319 318 320 321 323 324 319 315 317 317 316 320 319 313 307 303 298 297 297 296 296 295 295 294 293
315 318 319 316 316 318 317 317 318 319 323 324 323 322 322 322 321 321 321 322 324 323 324 328 327 327 324 320 320 318 317 319 314 315 320 317 317 316 313 317 318 313 314 313 316 322 319 320 323 315 310 313 316 316 317 316 312 312 313 313 314 314 315 318 316 314 318 323 324 322 319 320 318 314 317 318 312 304 303 303 299 297 296 296 296 295 294 293
314 320 319 313 315 317 316 317 319 321 323 323 322 321 321 320 321 321 319 320 323 321 323 328 327 327 327 323 322 320 319 320 315 316 321 318 319 321 315 315 317 314 314 315 317 322 322 321 323 319 314 317 320 316 312 313 313 313 315 315 315 315 316 319 317 314 315 318 320 321 319 319 318 311 310 313 310 303 301 302 300 297 297 297 296 296 294 293
316 321 317 311 314 316 316 319 320 320 322 322 321 320 319 319 320 320 318 319 323 321 321 325 326 327 327 325 325 323 321 320 317 318 321 320 321 321 314 313 316 315 316 318 318 319 320 321 322 321 320 318 315 310 307 310 312 312 315 315 315 315 316 320 320 317 315 315 314 316 319 317 311 305 306 307 306 302 299 300 299 298 297 297 296 296 294 293
317 317 312 310 313 315 317 320 320 320 321 320 319 319 319 318 319 319 318 318 321 321 321 323 323 324 325 324 324 323 321 319 318 319 322 322 320 315 311 312 316 316 318 319 318 316 317 320 321 321 322 317 311 309 307 308 311 313 315 315 314 314 316 318 318 318 318 317 315 315 319 317 308 303 304 304 302 302 300 299 299 298 298 297 296 296 295 293
313 312 310 310 311 314 319 321 320 319 320 318 318 319 318 318 318 319 319 319 320 320 321 321 320 321 323 323 322 322 321 319 319 319 320 322 318 311 309 313 315 316 318 318 319 318 318 320 321 321 322 319 316 315 313 311 313 316 317 315 314 314 315 315 314 315 316 317 317 317 319 317 311 306 305 304 303 303 300 298 298 298 298 297 296 296 295 293
311 311 311 310 310 313 317 319 319 319 319 318 318 319 318 317 318 318 318 319 320 321 321 319 319 320 321 321 321 321 320 320 319 317 318 320 317 310 309 312 315 318 317 315 318 319 317 319 321 321 321 321 320 321 320 317 315 315 315 316 314 313 313 315 316 315 315 316 316 316 317 317 312 308 307 306 306 306 303 299 298 298 298 298 297 296 295 293
312 312 312 311 311 312 313 314 317 319 318 318 318 318 318 318 317 317 318 318 318 320 320 318 318 320 320 319 319 318 318 319 318 318 319 320 317 310 307 308 313 316 315 313 316 318 317 317 318 320 320 319 320 320 317 316 318 318 316 316 316 313 311 314 317 316 316 318 316 315 316 316 313 311 311 309 308 308 305 300 298 298 298 297 297 296 295 294
310 311 311 312 312 313 313 313 316 318 318 318 318 317 318 318 317 316 317 317 317 318 318 317 317 318 317 317 317 317 318 318 317 318 318 319 316 309 305 306 310 311 311 311 312 316 317 317 316 318 318 318 320 318 313 315 320 320 318 317 317 313 311 312 314 315 317 318 317 316 315 316 317 315 313 313 312 311 309 304 301 299 298 297 296 296 296 295
306 307 307 308 310 312 313 314 315 316 317 316 316 315 316 317 316 316 316 315 315 317 317 316 316 317 317 317 318 318 318 318 317 317 317 318 316 311 308 308 307 308 310 310 309 313 317 317 317 317 316 316 316 315 314 315 316 316 317 318 317 315 313 312 312 313 316 316 316 316 315 316 318 316 316 317 316 315 313 307 301 298 297 297 297 297 297 296
302 303 303 304 307 307 309 312 314 314 314 314 314 313 314 315 314 314 315 314 315 316 317 317 317 317 317 318 318 318 318 318 318 317 317 317 317 315 314 313 308 305 308 310 309 312 316 316 316 315 316 316 314 311 311 312 312 312 314 315 316 315 313 312 312 312 313 314 313 313 313 314 314 315 315 313 310 308 306 303 301 300 300 299 298 298 297 296
301 302 302 303 304 303 305 309 311 312 311 310 312 312 312 314 315 314 315 315 316 316 317 317 317 317 316 318 319 318 317 318 319 318 318 316 316 315 315 317 313 306 306 309 309 310 313 314 313 312 315 315 310 307 308 309 310 311 312 312 311 311 311 310 311 311 311 312 311 310 311 311 310 312 313 310 306 305 305 305 305 304 302 301 300 298 297 297
297 297 299 303 306 304 305 307 308 310 310 310 311 311 311 313 314 315 315 314 315 317 317 316 318 317 315 316 317 317 316 318 320 320 318 317 316 316 315 316 315 309 307 308 309 310 311 310 309 310 316 314 307 306 307 306 306 308 310 310 308 309 310 309 309 310 311 311 311 310 310 310 309 308 308 307 306 306 307 307 306 304 302 301 302 301 299 298
295 295 296 302 306 305 304 306 307 309 310 310 310 310 311 312 312 315 315 312 312 314 314 315 317 316 315 315 315 316 317 317 315 313 313 313 314 314 313 313 313 311 309 308 308 310 309 310 310 311 315 312 304 303 305 306 308 310 310 311 310 308 308 307 307 308 308 310 312 311 310 310 309 306 304 304 305 305 305 305 304 305 304 301 301 301 300 298
Wind_Speed
1 1 1 1 1 1 1 1 1 1 1 1 1 1 1 1 1 2 2 3 3 4 5 5 6 7 8 9 10 11 13 13 11 8 5 3 0 4 3 1 2 2 2 1 1 2 3 6 6 7 5 4 5 3 3 3 2 4 3 3 1 2 2 4 6 5 2 1 3 3 2 2 3 4 2 1 2 2 4 4 4 5 4 0 8 16 16 13
2 2 2 2 1 1 1 1 0 0 1 1 1 1 1 1 1 2 2 3 3 4 5 5 6 6 7 8 10 12 14 13 8 6 6 4 3 5 4 2 3 3 3 2 2 3 3 3 4 7 6 3 3 3 2 2 3 3 3 2 2 5 3 4 6 5 2 1 4 4 1 2 2 2 2 3 4 5 5 6 4 5 5 6 14 18 17 15
2 2 2 2 2 1 2 2 1 1 1 0 0 0 0 0 1 1 1 2 3 3 4 5 5 6 7 8 9 12 14 10 4 4 6 5 6 6 4 3 4 4 3 3 3 4 5 4 4 6 4 3 2 2 3 3 2 1 3 2 4 5 3 3 4 5 4 1 3 4 1 0 3 2 2 3 7 7 3 5 3 4 5 5 10 16 19 19
2 2 2 2 2 2 3 3 2 2 2 2 1 1 1 1 1 1 1 2 3 3 4 4 5 5 6 8 9 11 12 7 2 1 3 4 6 5 4 3 4 4 2 3 5 5 7 7 7 5 4 3 3 3 3 3 1 2 3 3 4 3 1 4 6 5 4 3 2 2 2 3 3 2 1 1 5 7 2 4 3 4 5 5 6 12 19 19
2 3 3 3 3 3 3 3 3 2 2 2 2 2 1 1 1 1 1 2 2 3 3 4 4 5 6 7 7 9 9 6 1 3 1 3 5 5 3 3 3 3 3 4 6 6 6 5 7 6 4 2 4 4 1 2 2 1 1 3 4 3 1 4 5 4 4 3 2 2 3 3 1 1 2 4 3 4 3 4 2 2 3 5 5 9 14 16
3 3 3 3 4 4 4 3 3 2 2 2 2 1 1 1 1 1 1 2 3 3 4 4 4 5 5 6 6 5 5 2 4 3 2 2 4 4 3 2 2 2 3 4 6 6 4 5 6 4 3 2 2 2 0 3 2 1 1 1 3 4 3 3 3 4 4 3 2 3 2 0 2 3 2 4 4 2 5 5 4 6 6 7 9 10 11 12
4 4 4 4 4 4 4 3 3 3 3 2 2 2 2 2 2 2 2 3 3 3 4 4 5 5 4 4 4 5 5 3 6 5 5 3 3 3 2 1 1 2 3 5 6 5 4 5 4 3 4 2 1 2 1 3 3 3 1 2 2 4 5 4 1 3 4 4 5 1 2 1 0 3 0 1 2 3 5 6 8 9 11 12 12 11 10 11
5 4 5 5 5 5 5 4 4 4 4 3 3 3 3 3 3 3 3 4 5 4 5 5 5 4 3 2 2 4 2 5 6 6 6 5 5 4 3 3 3 4 5 4 5 6 4 4 3 4 3 1 3 2 1 2 4 3 3 3 1 3 5 4 3 4 5 6 4 2 3 4 4 3 1 2 2 5 3 6 8 8 12 13 11 10 10 12
5 3 5 6 5 6 5 5 5 5 4 4 3 3 4 4 3 4 4 4 5 5 5 4 4 2 1 2 5 3 3 4 4 4 5 5 6 6 5 5 5 6 6 4 5 7 4 3 4 4 3 2 4 2 1 1 2 3 5 2 2 3 5 4 4 6 4 4 2 2 6 3 2 2 1 2 3 4 4 7 7 8 11 10 9 10 10 12
5 3 5 7 5 6 5 4 5 5 5 4 4 4 4 4 4 5 4 5 5 5 5 4 3 1 2 3 6 1 4 3 2 3 3 4 5 5 5 5 5 6 6 5 6 8 4 5 5 5 5 3 3 2 1 3 1 3 4 3 4 4 5 3 4 4 2 3 3 4 7 2 1 1 2 1 4 3 5 8 6 8 9 7 6 7 10 12
5 3 5 6 6 6 5 5 5 5 5 5 5 5 5 5 4 5 5 5 5 4 4 3 2 1 3 5 5 3 4 3 4 3 3 3 3 4 5 5 5 5 6 6 7 8 4 7 10 6 2 2 2 1 1 3 2 2 1 3 6 5 5 3 3 4 2 2 4 6 5 1 2 1 2 3 4 3 6 7 6 7 5 5 5 6 9 11
6 5 5 5 6 8 6 6 6 5 5 4 5 5 4 4 4 4 4 4 4 3 3 2 2 4 4 3 4 7 5 4 5 3 3 3 3 3 4 5 5 4 5 4 7 8 4 9 12 6 1 4 3 0 2 2 2 1 3 3 7 7 6 4 3 2 1 1 3 4 2 4 3 3 0 6 3 3 7 7 6 6 5 5 6 6 9 12
8 7 6 6 7 9 7 6 6 5 5 4 5 4 4 4 4 4 4 3 3 2 2 2 3 5 4 0 5 8 8 7 6 4 3 2 2 3 4 5 6 4 4 3 5 8 6 9 10 5 3 5 2 1 3 3 2 1 3 3 5 7 6 4 2 3 2 0 1 1 2 4 1 2 4 8 3 3 7 6 6 6 5 6 6 6 7 11
7 7 7 6 7 9 9 7 6 6 5 4 4 4 4 4 3 4 3 2 2 2 2 3 5 6 4 3 4 5 9 10 8 7 6 5 4 5 5 6 6 5 4 3 5 6 6 8 8 6 3 3 2 3 4 5 3 1 2 2 3 2 5 5 2 3 2 1 2 2 2 4 3 1 6 8 3 4 6 5 5 5 5 5 5 6 6 9
7 7 6 5 6 9 11 10 6 6 5 4 4 4 4 3 2 2 1 2 1 1 2 4 6 6 2 4 5 3 7 7 9 10 7 8 7 7 7 7 8 7 6 6 7 8 8 9 7 5 1 2 3 4 3 4 3 2 1 3 2 1 5 7 3 1 1 1 4 4 2 5 3 1 6 6 3 7 7 4 5 5 5 5 5 6 5 7
8 9 8 7 9 10 12 10 7 7 5 3 3 3 3 2 1 0 1 1 2 3 3 4 6 5 2 3 2 2 5 5 6 9 8 10 10 8 10 10 9 9 9 10 11 11 9 7 4 2 2 2 4 4 3 3 4 3 0 3 2 1 3 6 3 1 1 0 4 3 2 4 1 1 5 5 4 6 6 4 4 4 5 5 5 5 5 6
9 10 10 9 10 10 11 10 9 8 4 2 1 4 2 1 2 2 4 5 6 6 5 5 6 3 1 2 2 3 3 5 6 8 11 11 9 10 13 9 7 9 10 9 9 7 5 5 2 0 2 3 3 4 3 2 4 2 1 2 3 2 2 4 3 3 4 2 1 3 1 5 4 2 4 6 4 6 6 4 4 4 4 5 4 5 5 6
9 11 11 10 11 11 11 12 10 6 2 2 2 3 1 4 3 3 6 8 8 7 5 3 4 2 3 2 3 2 3 5 7 9 11 9 9 12 11 7 6 9 8 5 3 3 3 3 2 1 3 2 2 5 3 5 4 3 2 2 3 2 3 4 4 2 4 3 2 3 2 8 8 0 5 5 3 6 5 3 3 4 4 5 5 5 5 6
12 12 11 11 12 13 11 11 8 3 4 2 1 3 6 5 2 3 5 5 4 3 1 3 4 2 3 3 2 3 6 7 7 8 10 10 11 11 9 8 7 7 5 2 1 1 2 3 4 1 2 3 5 7 9 7 5 6 5 4 4 4 4 5 5 4 1 2 4 6 6 8 9 4 3 3 3 5 4 3 3 3 4 4 4 4 4 5
16 15 13 13 14 13 12 11 7 5 5 1 2 6 5 3 2 1 2 2 5 4 2 5 6 2 1 1 3 7 7 6 4 5 10 12 13 12 6 5 6 5 3 4 3 1 3 3 3 6 7 7 8 10 7 4 6 5 4 3 4 4 5 5 4 4 0 1 5 5 4 6 8 5 3 2 2 4 3 3 3 3 4 4 4 4 4 4
17 16 14 16 15 13 12 10 7 9 6 2 5 5 2 3 2 2 3 4 10 9 5 5 5 3 2 1 6 9 5 2 2 4 11 12 13 11 2 2 5 2 1 3 3 1 3 5 9 9 6 6 7 7 4 3 4 3 3 3 3 4 6 6 3 4 1 2 4 1 1 7 7 3 3 2 2 3 2 2 2 3 3 3 3 3 3 2
17 17 17 17 16 13 11 9 9 12 6 4 7 4 3 3 2 1 1 2 9 11 10 5 2 6 4 2 7 7 3 1 0 2 10 10 7 6 2 4 5 4 2 3 4 1 2 5 11 7 5 6 4 5 6 3 3 2 2 2 4 3 3 6 3 4 2 3 3 3 3 8 5 1 3 3 3 2 1 2 2 2 3 3 3 3 3 3
20 20 19 17 15 11 10 9 10 11 7 8 9 6 3 1 1 1 2 0 5 5 6 6 4 6 5 3 7 8 2 4 4 5 11 11 3 4 5 5 5 5 4 6 6 5 4 6 9 6 7 6 3 4 7 3 2 3 3 3 5 3 1 4 3 4 2 1 2 2 4 6 2 1 3 3 2 2 2 3 3 2 3 2 2 2 3 3
22 20 20 17 14 13 11 8 9 10 11 12 13 14 6 1 3 2 1 0 4 4 4 7 6 5 7 5 9 12 5 4 4 5 14 13 4 3 5 5 5 5 6 9 8 6 5 4 3 6 7 7 4 3 6 4 3 3 5 6 6 4 5 6 3 3 3 3 1 1 4 5 1 1 0 1 1 2 2 3 4 3 2 2 2 3 3 3
22 21 21 17 15 15 10 7 9 13 11 10 15 17 10 4 4 3 1 2 4 5 3 4 4 5 7 6 10 11 3 2 3 5 14 14 7 4 3 2 4 5 7 6 6 4 5 4 4 6 5 6 6 4 5 7 4 3 5 10 9 7 7 5 1 3 3 3 2 1 2 4 3 2 3 2 0 1 2 3 3 2 2 2 2 3 3 3
22 21 21 18 17 16 10 6 11 13 9 10 13 12 12 9 7 5 3 3 4 4 1 3 4 6 8 6 7 7 2 3 3 2 10 11 6 4 3 2 1 4 6 5 3 3 3 2 3 5 5 6 5 4 6 7 4 2 5 8 9 7 6 4 3 3 1 2 2 2 1 3 5 4 2 3 2 1 1 1 1 0 1 1 1 2 2 2
22 22 22 19 17 18 12 4 10 13 6 10 12 12 13 12 9 6 3 4 5 3 4 2 0 5 7 3 4 7 2 3 2 3 4 5 3 2 3 4 2 2 4 4 1 2 3 2 3 4 5 5 4 4 5 8 6 3 4 4 7 7 7 6 6 4 3 2 3 3 2 2 4 4 1 3 3 0 1 1 1 1 1 1 1 1 1 1
22 23 23 20 20 23 15 4 10 16 7 7 12 15 15 13 9 4 3 1 4 2 4 1 1 3 3 1 3 5 1 0 4 1 1 3 1 2 1 6 6 4 2 4 4 3 3 5 5 6 5 4 5 4 8 10 5 4 2 5 6 6 6 5 6 3 1 1 3 3 2 2 4 4 1 1 2 2 4 5 4 3 3 2 2 1 1 0
23 24 24 22 22 24 18 8 11 15 10 7 14 18 17 13 7 4 3 3 2 3 2 1 3 2 2 3 3 3 1 2 2 2 2 3 1 3 3 5 6 6 1 2 5 3 1 4 7 8 5 5 4 2 7 9 4 3 5 6 5 5 5 4 4 3 2 1 4 5 3 2 4 4 1 1 3 5 5 5 4 4 4 4 3 3 2 1
24 25 25 21 20 25 24 16 15 14 9 10 16 19 16 9 4 3 3 5 1 1 1 2 2 1 5 6 0 2 2 2 1 1 2 1 3 5 2 2 6 6 2 4 1 2 1 1 2 4 4 5 4 3 2 4 4 5 6 6 6 5 4 3 2 3 2 2 5 5 2 2 2 5 3 3 3 4 5 4 4 5 5 5 4 4 4 3
25 26 27 24 23 28 24 16 21 17 9 13 19 17 11 3 2 5 7 3 1 1 2 1 1 3 7 8 3 1 3 2 0 3 3 1 3 4 2 2 4 4 2 2 2 3 2 1 2 1 2 5 6 5 3 3 4 5 4 4 4 3 3 3 4 3 1 4 5 3 1 3 3 4 3 4 3 3 5 6 8 9 7 6 5 4 4 3
27 27 29 27 26 30 22 15 23 20 10 16 19 11 6 2 1 7 5 0 1 3 4 3 2 5 7 3 3 3 4 2 1 3 4 3 3 4 3 4 4 3 1 4 2 2 1 3 2 0 1 3 6 5 4 4 3 4 4 5 4 2 3 2 3 1 3 4 3 2 1 2 5 6 4 5 4 3 3 5 9 11 10 8 6 5 4 4
31 30 31 30 28 31 26 17 20 20 16 20 14 4 3 5 7 10 7 3 2 2 4 4 2 5 7 4 2 3 3 2 3 2 2 3 3 4 2 2 5 4 1 4 3 1 2 4 1 3 1 3 7 6 2 1 2 4 5 5 4 2 2 1 3 2 3 3 2 2 1 1 4 5 3 4 4 3 3 3 6 10 11 10 8 6 5 5
34 33 35 35 32 34 30 20 18 23 24 20 9 3 5 7 7 7 9 6 1 2 3 4 5 6 6 4 3 5 3 1 4 4 2 3 4 5 4 3 3 3 4 3 3 4 3 3 3 5 2 4 8 5 5 6 4 4 4 5 4 4 4 3 3 3 3 2 2 3 1 3 3 2 2 2 2 3 3 3 4 6 7 6 6 6 5 5
38 38 37 35 35 37 35 27 22 26 26 14 6 6 8 9 4 3 6 5 2 2 3 3 6 6 3 1 2 5 4 2 3 4 2 4 4 5 5 5 5 4 4 4 2 2 2 4 4 1 1 4 6 2 4 7 3 1 2 5 3 4 4 2 2 4 2 1 2 2 2 4 4 1 3 2 2 3 2 2 5 6 5 6 6 6 6 5
39 38 35 33 35 38 39 33 27 28 23 10 6 10 9 7 4 2 4 4 4 6 7 3 3 4 3 2 2 6 3 2 4 4 1 3 3 4 4 4 6 7 5 5 3 2 2 3 4 2 2 2 2 2 2 2 3 2 2 3 4 3 6 4 1 1 3 1 3 2 3 3 0 1 2 2 1 3 2 1 6 7 6 7 6 6 6 6
34 32 29 30 34 36 40 38 33 29 17 6 8 10 6 4 4 3 2 3 4 7 9 4 3 5 5 4 4 7 4 3 4 4 3 3 3 5 5 4 5 10 8 4 2 3 4 1 3 2 1 1 1 1 4 3 3 5 3 5 3 2 4 3 1 2 3 2 4 1 3 2 1 2 2 1 3 4 3 3 5 6 7 8 8 8 8 8
26 20 17 26 35 35 38 43 38 24 8 4 10 10 4 3 3 3 3 3 4 5 5 4 5 5 6 5 5 7 7 4 5 5 4 4 3 5 8 4 5 11 11 5 1 1 4 1 3 1 1 1 2 2 3 4 3 4 3 3 3 3 1 2 2 1 1 3 4 2 2 2 4 4 2 5 8 8 6 5 6 9 11 10 10 9 9 9
18 9 5 19 33 33 38 44 35 15 3 5 12 10 3 3 2 2 5 4 3 4 4 3 2 2 4 5 3 5 7 6 7 6 4 4 3 4 7 4 4 7 8 7 4 1 3 2 2 1 1 1 2 1 3 1 2 3 1 1 2 2 3 2 2 2 2 2 3 3 2 3 5 5 7 11 12 11 9 8 10 13 13 12 11 11 11 10
11 4 2 13 27 32 37 36 21 8 5 8 10 7 3 3 3 3 5 4 2 1 3 3 3 3 3 3 1 3 5 6 8 5 3 4 3 3 4 3 4 4 3 6 5 1 3 1 2 1 2 2 2 2 5 6 3 2 2 2 1 0 2 1 1 2 2 2 2 3 4 4 4 4 8 10 9 12 14 13 13 12 12 13 13 13 12 10
5 3 2 12 26 32 30 20 8 6 7 9 10 7 3 3 3 3 3 2 2 1 2 3 4 3 3 3 1 1 2 3 5 4 2 4 3 2 2 0 5 6 5 6 5 2 2 2 3 2 1 3 3 3 3 4 4 4 4 5 5 3 3 1 3 1 2 2 3 2 5 6 3 2 4 4 5 10 13 12 11 11 14 15 14 13 12 10
4 4 1 13 30 32 20 8 4 5 6 6 6 5 3 3 3 4 3 1 2 1 1 2 3 3 4 4 3 3 3 1 3 2 1 3 2 1 1 2 2 6 5 5 3 2 2 3 3 2 3 3 3 2 0 2 2 3 3 4 4 4 4 4 5 3 1 1 2 2 4 6 2 1 2 3 3 5 8 9 9 11 14 14 12 10 8 8
4 3 1 13 30 29 13 5 5 5 4 3 2 2 3 3 3 5 4 3 2 2 2 1 2 3 4 3 3 5 5 3 3 2 2 1 1 1 2 4 1 3 3 3 3 2 2 3 2 1 2 2 3 3 2 2 2 1 2 2 3 3 3 4 4 2 2 3 2 2 4 5 2 1 2 2 2 2 5 7 8 7 8 8 8 7 6 7
2 2 2 9 24 21 8 6 8 6 4 4 4 4 2 1 4 6 6 6 4 3 3 2 1 2 3 3 5 6 6 3 2 2 2 2 1 1 2 3 2 3 2 1 3 3 2 2 3 2 1 2 3 2 2 2 1 3 2 1 3 3 4 2 1 3 2 5 6 4 8 5 1 3 3 3 2 2 4 4 5 5 5 5 6 7 7 7
2 1 2 4 13 11 4 4 7 7 7 6 7 8 5 2 2 3 6 7 4 3 4 2 1 3 3 3 4 4 4 3 2 2 1 1 0 1 3 3 3 3 1 1 3 3 2 2 3 4 4 5 3 3 3 2 1 2 1 2 4 5 7 4 2 3 4 3 7 6 9 5 2 3 3 4 3 3 3 2 3 4 4 6 8 8 8 7
2 1 0 1 4 4 2 1 3 6 9 8 7 8 10 7 1 2 3 5 2 2 4 2 2 4 3 3 4 3 4 3 3 3 3 3 1 1 1 2 3 3 3 4 5 4 2 2 4 6 8 7 5 5 4 3 4 3 3 4 5 6 7 5 3 4 5 2 3 8 7 5 3 2 4 5 3 3 3 2 3 5 6 7 7 7 6 6
2 1 2 2 1 2 1 1 2 3 6 8 6 5 10 11 3 0 1 1 2 3 3 2 3 4 4 5 5 4 6 5 4 4 3 4 2 0 1 3 3 2 4 4 2 3 3 3 7 9 11 8 5 4 3 4 3 5 5 5 6 6 7 8 7 6 4 2 8 7 4 4 5 4 5 5 3 4 4 4 6 6 7 6 4 5 6 7
1 0 0 0 0 2 2 2 4 3 3 5 3 3 9 11 7 4 1 1 2 4 2 1 4 8 10 9 6 4 5 5 5 4 3 2 3 2 2 2 2 1 4 3 3 3 4 4 5 8 11 9 5 4 4 3 2 4 5 7 8 9 11 12 12 10 7 8 12 5 5 5 6 5 6 6 5 6 5 5 6 5 5 5 5 6 8 9
1 1 1 1 1 0 2 0 4 3 2 3 2 3 8 10 9 6 3 3 2 4 4 4 6 9 10 9 7 5 6 6 4 4 4 3 4 4 2 2 2 0 2 3 1 2 3 2 3 5 8 8 3 4 4 4 4 4 7 11 12 11 12 13 13 14 12 12 7 3 4 9 6 5 8 7 5 4 2 2 4 4 5 5 6 7 8 9
1 1 0 1 2 1 3 3 3 3 3 3 3 4 6 8 9 5 3 5 5 4 4 6 7 8 9 9 9 7 8 9 6 6 7 5 3 3 3 3 3 1 1 3 2 2 2 2 2 3 4 4 1 3 3 4 5 5 10 15 11 7 8 11 11 8 6 7 3 4 6 10 4 5 6 4 2 3 2 3 4 4 5 6 7 8 8 9
4 2 1 2 2 2 1 1 2 2 3 4 4 4 5 7 8 6 2 3 5 6 8 9 8 7 6 8 10 9 9 9 8 8 9 8 6 4 3 3 6 6 3 3 3 3 3 2 2 3 3 3 1 4 4 2 1 5 15 17 11 8 8 8 7 6 6 7 6 6 9 9 4 5 5 2 2 3 5 5 4 4 5 6 7 8 8 9
5 3 1 2 1 2 3 2 3 3 3 4 5 4 4 5 6 7 4 1 2 3 5 9 10 6 4 8 11 9 7 7 6 5 5 5 4 3 2 3 6 7 6 5 2 2 4 4 2 3 3 1 1 2 4 3 0 8 14 13 12 12 8 3 4 7 9 9 8 8 9 6 3 5 5 4 5 6 6 5 5 5 5 6 7 8 8 8
Wind_Direction
319 304 279 284 260 254 247 235 228 252 284 298 327 341 341 355 349 358 352 347 354 353 358 358 359 359 355 356 353 347 344 338 333 343 5 9 54 156 144 92 95 85 70 82 121 113 61 43 34 35 53 50 14 348 14 16 54 54 78 83 32 192 183 180 181 194 170 296 275 320 36 102 309 315 304 0 47 323 315 308 291 312 294 288 11 2 2 5
316 300 285 290 282 281 285 279 264 295 320 328 338 327 337 14 346 357 351 346 349 348 352 353 358 355 354 358 352 350 343 334 343 22 36 35 116 141 143 124 116 104 90 106 100 81 79 43 28 44 49 42 351 345 22 7 50 79 114 73 254 203 208 193 175 193 192 267 268 297 25 143 250 282 343 326 300 334 343 304 332 330 303 9 9 9 18 29
313 305 300 302 295 274 265 272 256 229 242 250 235 273 284 243 278 332 342 342 343 345 346 348 356 352 355 355 354 354 341 339 14 36 29 64 116 129 130 121 118 114 94 105 103 76 105 119 77 64 48 54 1 350 36 13 20 130 116 79 243 213 234 227 194 205 205 218 286 294 36 141 239 219 337 315 295 322 332 286 329 320 309 1 2 15 26 35
323 306 300 302 294 276 266 268 255 230 224 220 214 224 226 228 276 295 314 328 332 337 338 346 352 351 353 350 359 354 345 6 44 312 33 84 119 120 114 119 123 116 97 110 113 93 104 102 74 67 60 51 338 8 51 343 358 138 122 161 218 186 248 225 202 216 213 202 236 268 354 311 256 180 241 171 309 318 300 259 268 294 332 9 354 17 24 30
300 286 288 287 283 283 279 273 266 247 236 228 220 222 215 251 294 302 311 312 317 329 330 336 340 344 347 349 3 356 3 32 271 243 92 116 132 127 112 112 126 116 107 121 123 108 101 82 62 54 54 51 343 24 44 305 87 123 186 179 185 151 256 239 195 211 191 160 209 261 313 291 171 152 199 167 254 294 337 318 308 347 36 48 21 21 23 25
252 270 274 270 277 284 286 286 282 264 260 256 239 238 243 260 295 317 311 313 318 324 318 319 329 337 343 351 358 8 45 48 245 213 190 175 148 147 126 107 119 122 127 132 128 114 89 56 55 57 49 52 21 56 260 306 48 152 279 236 204 177 222 241 179 201 167 133 231 230 272 289 62 315 207 169 229 293 8 4 52 58 69 69 48 36 26 23
240 260 266 269 280 281 278 279 275 258 259 262 253 255 266 279 305 315 309 310 308 314 312 313 324 331 344 356 358 35 75 253 249 215 228 213 185 185 146 142 181 175 166 143 127 117 93 67 78 130 85 49 184 140 105 350 45 112 243 290 219 182 217 233 176 199 175 207 244 200 318 289 177 292 289 174 268 32 28 41 63 63 62 59 51 40 32 29
230 239 258 277 292 286 277 269 266 255 248 245 252 259 266 284 300 311 308 298 298 306 309 310 320 333 352 22 49 25 14 246 243 230 235 224 220 220 217 242 213 194 178 163 150 141 122 102 141 155 89 13 179 143 113 21 40 117 216 263 154 196 245 263 287 270 233 239 246 116 278 256 194 191 89 304 14 53 46 46 47 56 53 47 43 35 31 32
229 237 267 287 295 289 288 281 269 258 251 240 245 256 267 281 295 309 309 298 299 305 311 310 312 323 322 80 86 17 282 223 227 231 228 221 227 227 227 226 204 197 174 172 169 153 156 163 185 180 144 178 158 137 168 192 301 199 189 223 237 269 292 295 275 270 253 244 156 174 274 287 180 158 122 291 37 62 61 49 33 44 46 38 35 30 30 31
235 243 266 289 303 295 297 302 288 270 259 243 245 252 263 277 289 306 310 300 298 304 310 299 295 287 198 128 93 349 249 181 189 199 187 203 211 211 216 211 200 197 170 166 169 157 166 187 173 149 133 130 146 132 141 159 188 183 166 219 245 288 302 263 249 274 283 255 182 220 275 304 251 215 138 321 27 55 68 55 33 51 53 43 40 34 36 35
248 254 262 288 301 287 291 310 303 280 262 246 250 256 261 274 287 301 304 297 294 299 301 283 275 209 166 134 128 217 229 190 204 189 173 184 184 192 198 202 199 197 179 162 176 175 169 176 151 119 126 143 138 89 225 189 114 120 116 285 284 319 300 266 285 297 314 269 183 191 253 326 356 81 137 341 24 60 74 59 35 52 51 42 47 42 41 34
234 235 250 270 277 278 288 305 303 287 270 256 256 261 267 276 285 293 292 290 293 294 283 258 211 181 146 107 191 221 218 193 192 173 170 166 164 185 182 195 196 194 193 170 186 186 156 165 143 105 178 148 133 43 215 194 87 92 44 335 304 344 326 309 353 308 319 266 171 163 264 336 34 111 10 334 15 64 60 49 26 38 29 29 35 35 40 31
231 232 241 243 262 282 291 296 297 288 280 268 265 267 272 282 293 293 288 288 290 286 263 223 198 172 140 325 231 221 220 209 199 192 196 187 173 183 174 184 177 166 182 161 173 175 159 168 144 104 125 118 136 193 110 58 48 287 35 34 314 351 330 308 26 328 339 147 239 128 283 304 310 151 325 330 329 48 48 35 19 24 18 23 26 29 36 29
239 243 258 269 279 289 294 293 289 283 284 281 276 275 282 288 290 290 289 292 287 261 244 190 180 162 141 249 242 228 227 223 226 229 227 218 181 151 146 152 153 145 149 134 142 156 163 163 127 97 102 83 143 139 55 14 18 322 0 39 356 350 286 296 351 339 353 49 352 99 219 271 220 221 338 334 339 86 72 31 22 24 20 24 22 29 30 27
238 244 257 272 263 268 281 287 282 271 276 277 275 280 288 290 282 290 282 280 289 199 186 158 166 144 91 275 256 242 231 224 225 224 220 206 180 142 134 135 129 123 121 120 123 127 138 141 111 95 113 1 83 100 28 350 12 30 320 306 347 167 271 307 329 37 95 356 15 101 194 283 202 175 345 348 26 88 88 42 33 29 24 30 24 29 27 21
242 254 257 250 249 261 274 283 283 272 266 261 278 291 291 290 249 160 128 134 113 121 122 139 154 129 80 268 235 233 226 211 208 205 193 187 181 149 132 126 116 115 114 110 112 113 109 105 80 82 126 53 81 95 50 3 339 359 98 247 272 202 280 322 332 15 46 79 10 59 201 288 202 182 344 13 50 80 88 61 45 39 29 38 32 31 30 19
244 257 261 254 255 264 268 272 275 270 249 192 309 310 290 139 122 117 113 107 105 97 93 126 133 109 261 222 208 255 216 184 183 183 181 177 177 156 137 119 104 111 108 103 110 103 64 57 62 323 59 66 105 100 69 320 280 302 37 224 246 218 226 308 307 345 25 94 28 19 202 263 248 155 20 17 54 83 85 71 54 56 44 42 38 36 33 26
243 251 256 256 258 264 263 263 266 258 179 109 342 320 122 123 116 117 131 120 96 74 65 115 115 77 263 210 189 213 139 155 160 161 168 160 158 157 141 119 116 111 91 74 80 69 24 29 72 50 28 47 129 117 164 227 213 188 172 189 245 239 219 267 272 288 6 27 336 338 281 267 271 128 47 12 46 85 88 85 70 60 51 47 40 40 33 29
242 247 255 257 256 267 266 257 259 225 141 87 6 108 104 94 82 121 144 131 109 110 186 204 157 147 230 230 169 125 111 131 142 149 152 144 146 144 124 109 108 102 94 97 82 94 92 54 68 127 220 199 178 177 200 205 162 164 168 153 191 227 242 242 247 260 301 345 284 268 261 266 275 295 31 7 36 80 90 80 64 52 50 48 43 37 32 36
249 245 249 250 251 263 261 253 248 176 143 134 160 128 107 90 48 310 207 198 213 190 165 195 190 182 230 257 139 128 119 119 126 154 153 151 144 126 98 81 74 68 113 153 165 133 113 126 174 214 214 192 191 201 199 149 121 136 145 149 190 216 261 258 255 289 323 172 262 247 251 266 266 285 343 334 27 67 66 65 60 51 53 45 47 40 29 34
248 245 244 246 251 258 251 249 216 163 149 196 182 153 162 168 132 271 235 247 246 231 235 220 207 252 267 167 157 149 132 90 33 151 158 161 148 136 111 71 100 107 206 158 139 82 99 167 218 224 197 168 185 192 165 118 124 125 166 207 241 217 252 264 253 305 345 188 264 339 308 273 262 291 346 349 57 47 21 74 71 58 63 50 49 40 26 24
240 243 244 244 252 254 240 234 188 160 157 199 195 208 253 211 148 214 170 286 266 236 230 236 246 270 257 180 177 164 113 98 323 204 169 159 154 171 169 101 144 178 183 133 118 104 137 216 235 222 139 109 101 140 149 174 179 166 154 185 260 232 264 289 300 337 15 177 260 9 331 273 269 12 15 25 72 60 6 72 75 77 77 56 51 43 31 28
237 239 240 242 249 246 231 218 179 164 189 203 202 212 238 274 151 114 121 292 292 246 212 211 213 234 227 229 197 173 163 184 192 228 183 159 155 189 149 137 164 144 148 177 165 162 185 244 240 192 135 121 86 107 129 140 188 193 167 174 244 224 180 280 296 339 19 118 261 342 306 276 270 59 34 38 80 85 51 60 59 62 77 68 68 53 39 39
236 236 238 240 237 234 228 204 180 193 217 219 222 216 194 132 172 155 82 272 285 275 219 204 198 200 203 213 187 176 198 203 178 205 185 167 141 155 163 158 144 137 185 198 182 183 213 243 196 130 138 158 165 136 138 163 233 228 201 206 231 210 204 234 281 331 350 24 7 330 307 290 251 202 221 34 82 77 38 53 53 36 45 58 60 51 41 42
234 232 237 234 224 225 213 181 202 217 214 222 232 219 195 176 184 175 84 24 287 287 279 207 195 207 193 164 167 172 176 227 222 200 180 174 150 137 179 154 138 187 195 176 175 219 249 229 133 112 131 162 173 188 184 188 217 275 224 214 220 213 216 231 358 14 357 353 343 35 306 289 311 267 212 195 156 50 19 43 56 30 27 37 45 41 35 36
232 229 232 230 219 209 183 180 221 211 200 225 228 204 187 183 175 174 103 40 281 263 216 192 179 186 177 149 158 146 82 251 249 133 163 178 169 126 149 146 84 201 177 144 166 219 244 213 127 140 152 150 167 227 224 176 152 282 243 210 211 204 200 199 144 112 174 258 313 51 169 257 315 312 221 175 158 81 19 43 60 20 32 47 46 31 30 30
230 225 225 226 214 191 175 207 207 181 188 236 213 183 183 178 171 186 94 21 276 192 130 217 176 156 167 168 159 137 171 242 97 78 142 170 189 91 137 176 127 200 170 127 207 244 182 137 93 134 140 141 170 236 219 155 135 240 244 163 168 178 186 183 159 168 216 245 326 13 130 221 294 295 271 153 155 130 288 242 238 210 180 101 65 33 67 43
226 222 219 219 210 194 188 198 177 175 200 220 183 176 177 172 173 173 90 317 274 101 108 244 67 104 131 97 92 116 210 218 112 212 356 91 170 57 135 197 166 168 165 146 212 267 152 166 179 155 134 167 199 217 183 154 153 242 210 126 140 155 164 150 138 172 232 51 306 302 146 195 269 274 335 103 189 248 232 220 214 197 197 181 174 183 137 109
221 218 218 216 213 205 202 207 184 190 211 186 168 172 168 168 171 89 79 221 252 81 90 135 115 48 69 104 50 59 48 35 118 235 8 82 95 62 155 199 143 138 103 129 205 248 131 202 192 152 149 198 200 209 175 164 182 202 129 98 83 79 89 96 117 136 76 93 241 246 186 192 268 277 297 104 244 247 218 202 198 193 200 191 184 184 168 157
220 215 216 213 209 204 205 220 214 196 196 175 167 165 158 156 142 108 199 222 156 109 112 110 149 123 125 136 44 357 76 36 82 53 34 98 32 35 120 145 97 119 47 14 210 235 326 307 192 146 169 184 142 77 133 144 138 140 113 78 57 41 45 48 64 95 75 269 242 236 198 168 255 274 237 189 228 207 165 158 180 195 201 196 193 185 173 163
218 213 213 208 200 196 196 219 217 197 183 176 164 153 149 117 75 174 214 229 71 139 126 122 180 135 146 150 165 186 97 41 179 103 100 136 58 47 98 119 80 78 19 336 288 299 355 2 252 196 152 126 100 67 45 63 96 111 98 91 89 4 12 24 359 45 134 251 259 258 196 148 208 257 229 209 233 186 161 167 177 188 196 192 191 185 180 173
216 212 211 209 201 195 196 214 208 195 180 171 160 144 145 125 201 208 221 41 162 202 152 161 191 160 167 138 101 155 129 103 162 116 133 148 148 166 165 170 153 84 311 232 228 329 279 228 237 142 150 133 115 86 41 32 63 90 99 109 113 349 11 7 307 280 218 247 275 268 175 165 232 248 214 193 209 205 196 189 180 182 184 184 187 181 177 177
215 210 208 210 206 201 204 211 204 192 175 166 163 156 162 183 215 213 209 198 210 199 125 122 117 139 151 125 121 169 126 148 177 126 130 121 148 203 231 175 159 125 171 197 168 173 267 283 204 143 244 190 152 143 135 164 153 151 151 135 136 112 73 271 265 276 264 260 287 283 224 203 267 270 222 183 204 224 219 220 198 187 182 181 178 171 172 180
215 208 206 209 211 210 208 204 200 189 174 165 170 190 188 211 220 191 196 211 211 64 85 104 106 118 144 156 202 181 129 183 174 124 102 114 139 207 226 223 186 119 103 134 166 176 200 278 200 167 211 189 176 176 153 147 148 173 163 132 146 155 159 218 220 215 253 282 305 305 256 188 207 263 272 231 263 279 247 231 212 196 184 168 161 161 170 180
214 207 205 205 209 213 208 201 201 191 176 166 181 190 199 221 221 160 187 194 145 90 60 75 108 118 169 226 247 198 169 197 163 121 133 161 167 198 197 201 194 152 131 157 201 161 171 267 258 246 294 164 176 205 114 116 125 203 135 113 163 182 150 161 187 174 179 309 293 252 232 224 189 209 291 299 308 316 305 220 186 185 173 153 161 171 174 185
208 202 203 203 206 210 205 201 201 193 181 173 194 197 207 216 187 175 187 150 151 144 115 89 92 113 185 211 228 216 189 139 153 146 185 194 201 202 192 209 192 178 167 160 182 147 129 283 305 359 1 94 173 223 88 114 172 151 134 171 214 177 117 118 207 95 79 284 266 197 226 283 325 251 302 23 323 312 338 199 178 177 171 167 181 184 183 194
199 196 198 203 208 207 202 201 198 192 188 190 205 205 213 216 173 164 170 122 138 140 131 158 180 154 181 188 195 201 180 136 156 166 183 194 219 191 190 240 192 185 198 171 177 193 152 248 321 46 99 4 304 139 60 25 122 120 176 208 189 125 93 105 194 16 43 249 272 233 217 245 165 235 319 38 254 253 234 201 178 177 181 185 192 191 194 199
197 194 196 207 208 204 201 199 192 188 195 215 219 223 211 203 187 142 148 137 128 138 148 183 186 169 181 187 190 184 175 172 169 173 177 192 240 181 169 207 193 193 204 172 132 224 140 159 312 10 145 335 359 98 78 8 55 121 192 195 113 138 144 94 152 193 220 247 287 294 248 234 198 206 214 208 220 215 198 193 190 192 192 193 195 195 199 201
191 178 205 212 207 205 201 194 187 184 211 207 217 230 201 182 226 166 162 151 112 139 165 179 167 138 163 174 167 164 175 178 166 171 179 180 226 194 170 184 185 199 204 162 156 203 117 164 255 326 237 195 42 89 167 229 19 62 96 82 64 155 161 146 151 160 186 227 288 296 286 241 227 206 188 200 206 188 177 192 203 200 195 193 194 195 198 198
170 169 242 194 197 203 197 189 185 189 209 209 214 220 173 176 218 204 188 169 104 149 184 170 148 128 144 151 105 159 179 175 165 177 200 176 183 204 195 176 141 162 167 145 157 140 88 164 205 288 295 182 162 212 186 177 165 117 127 161 194 111 111 192 198 112 136 180 222 287 288 256 244 209 191 202 199 180 180 192 200 198 194 196 199 199 198 194
144 217 240 165 180 188 183 179 192 199 202 216 217 213 191 170 172 182 205 168 106 186 191 153 150 144 141 139 128 162 145 154 173 181 204 187 175 176 211 139 137 149 133 136 165 181 126 144 161 167 208 188 219 248 192 187 183 163 176 186 185 172 129 170 252 162 109 186 185 216 276 265 238 207 211 217 202 191 190 189 189 190 193 199 203 200 196 191
156 213 188 160 170 169 166 178 199 186 207 216 209 208 180 149 155 170 184 141 108 144 94 113 138 143 149 155 160 147 122 138 202 202 217 196 167 133 322 336 146 145 124 134 171 180 130 113 117 181 217 214 253 307 303 236 184 147 205 193 173 178 148 170 227 214 124 232 142 121 275 277 265 232 258 261 239 212 199 188 187 195 197 200 202 195 188 190
174 183 110 164 168 164 164 200 181 179 218 194 162 182 161 162 167 161 173 182 164 151 132 131 157 163 173 165 144 148 149 159 184 192 228 212 136 40 320 312 283 108 94 126 150 146 126 112 117 248 292 326 344 350 353 357 87 166 239 167 158 191 159 178 207 156 164 212 133 102 263 269 305 325 286 279 277 237 212 198 192 199 202 200 194 185 183 189
130 129 42 180 182 179 179 194 185 194 199 158 172 183 149 199 180 165 180 187 176 158 147 154 178 165 164 141 133 153 163 161 177 196 196 178 157 65 1 341 16 65 58 144 151 164 176 137 132 152 293 329 343 349 332 331 265 214 219 169 204 173 110 102 126 104 233 208 152 187 249 251 288 313 321 345 348 259 233 214 194 196 199 194 191 192 192 188
87 89 20 197 201 205 215 195 183 188 186 179 188 180 163 210 210 184 182 171 165 160 147 156 157 117 109 97 103 131 145 133 153 201 184 171 19 35 20 7 50 88 94 81 97 117 152 168 155 160 202 229 224 201 217 231 193 193 182 194 219 185 157 162 146 165 235 194 147 205 248 263 325 320 303 321 330 280 250 212 202 204 194 195 201 201 194 185
107 140 111 161 216 229 273 255 152 170 185 186 188 183 181 187 246 323 183 163 168 139 115 119 102 88 93 116 114 146 169 152 149 162 173 188 217 339 24 42 63 103 136 114 98 102 116 198 197 200 222 223 203 203 201 145 136 182 200 194 202 190 173 156 138 192 207 168 198 229 236 247 264 259 266 282 286 263 254 194 204 215 207 209 210 200 183 179
109 156 168 137 213 211 204 220 159 163 177 180 185 185 180 178 166 338 207 171 172 136 83 75 129 131 159 156 147 174 179 173 171 162 166 180 176 57 68 73 59 102 135 107 61 101 121 219 213 211 232 224 172 181 182 127 152 189 193 208 206 180 166 173 200 211 145 155 249 240 181 221 241 211 228 251 238 233 233 207 210 216 211 208 194 174 173 183
93 114 203 77 300 206 203 184 162 134 125 158 173 165 173 175 166 162 152 47 149 161 135 136 175 178 175 161 157 169 168 177 184 168 164 172 150 122 89 80 70 134 134 86 14 108 136 235 214 198 234 234 166 159 172 150 196 202 197 220 217 192 181 190 211 211 176 212 246 225 143 213 235 205 210 215 204 211 213 204 203 199 193 185 175 182 192 197
89 64 329 353 40 223 300 26 135 142 142 148 154 165 176 179 174 171 145 107 163 193 181 189 195 189 177 162 158 166 169 176 184 180 178 176 164 155 145 132 111 105 130 110 70 134 143 235 208 187 238 245 179 149 166 179 220 233 225 229 226 212 198 197 213 215 208 227 241 135 181 239 232 196 209 208 194 192 179 162 170 178 183 181 186 201 208 209
132 184 124 73 85 70 342 359 123 168 197 189 203 195 184 182 177 171 152 153 169 188 194 199 189 178 177 174 176 191 187 174 176 185 177 171 179 176 182 182 145 111 146 137 156 213 183 192 160 154 230 261 131 119 137 184 213 234 248 243 228 211 209 211 218 212 205 237 233 151 226 253 229 178 208 217 153 135 164 188 188 198 196 185 195 210 215 217
93 48 98 112 127 132 93 12 119 164 196 198 208 195 188 199 186 162 168 191 167 165 185 188 169 159 178 189 196 206 194 176 178 184 174 170 182 185 194 186 147 141 165 154 147 185 192 182 94 125 202 244 156 147 146 124 153 247 258 251 221 196 211 210 205 189 182 210 218 212 236 250 222 183 206 233 158 177 218 220 209 220 209 190 200 212 216 219
101 34 50 93 95 147 147 123 145 185 213 195 198 195 188 196 177 161 180 304 65 142 187 183 166 151 167 198 210 210 186 163 159 162 157 143 131 126 133 145 136 141 162 163 142 157 169 162 133 157 193 249 39 147 144 109 248 254 255 244 212 207 210 171 183 208 199 195 206 224 237 237 190 169 184 211 207 211 232 227 214 226 214 197 208 215 220 224